Time,TemperatureF,DewpointF,PressureIn,WindDirection,WindDirectionDegrees,WindSpeedMPH,WindSpeedGustMPH,Humidity,HourlyPrecipIn,Conditions,Clouds,dailyrainin,SolarRadiationWatts/m^2,SoftwareType,DateUTC
2013-01-25 00:21:00,61.0,58.0,-100.00,South,182,7.0,9.0,91,0.00,,,0.01,0.000000,,2013-01-25 07:21:00,
2013-01-25 00:32:00,61.0,58.0,-100.00,South,182,7.0,9.0,91,0.00,,,0.01,0.000000,,2013-01-25 07:32:00,
2013-01-25 00:42:00,61.0,58.0,-100.00,South,182,7.0,9.0,91,0.00,,,0.01,0.000000,,2013-01-25 07:42:00,
2013-01-25 00:51:00,61.0,58.0,-100.00,South,182,7.0,9.0,91,0.00,,,0.01,0.000000,,2013-01-25 07:51:00,
2013-01-25 01:11:00,61.0,58.0,-100.00,South,177,8.0,12.0,89,0.00,,,0.01,0.000000,,2013-01-25 08:11:00,
2013-01-25 01:21:00,61.0,58.0,-100.00,South,177,8.0,12.0,89,0.00,,,0.01,0.000000,,2013-01-25 08:21:00,
2013-01-25 01:32:00,61.0,58.0,-100.00,South,177,8.0,12.0,89,0.00,,,0.01,0.000000,,2013-01-25 08:32:00,
2013-01-25 01:41:00,61.0,58.0,-100.00,South,177,8.0,12.0,89,0.00,,,0.01,0.000000,,2013-01-25 08:41:00,
2013-01-25 01:52:00,61.0,58.0,-100.00,South,177,8.0,12.0,89,0.00,,,0.01,0.000000,,2013-01-25 08:52:00,
2013-01-25 02:11:00,61.0,58.0,-100.00,South,178,8.0,11.0,90,0.00,,,0.01,0.000000,,2013-01-25 09:11:00,
2013-01-25 02:21:00,61.0,58.0,-100.00,South,178,8.0,11.0,90,0.00,,,0.01,0.000000,,2013-01-25 09:21:00,
2013-01-25 02:31:00,61.0,58.0,-100.00,South,178,8.0,11.0,90,0.00,,,0.01,0.000000,,2013-01-25 09:31:00,
2013-01-25 02:42:00,61.0,58.0,-100.00,South,178,8.0,11.0,90,0.00,,,0.01,0.000000,,2013-01-25 09:42:00,
2013-01-25 02:51:00,61.0,58.0,-100.00,South,178,8.0,11.0,90,0.00,,,0.01,0.000000,,2013-01-25 09:51:00,
2013-01-25 03:12:00,61.0,58.0,-100.00,South,186,6.0,10.0,90,0.00,,,0.01,0.000000,,2013-01-25 10:12:00,
2013-01-25 03:21:00,61.0,58.0,-100.00,South,186,6.0,10.0,90,0.00,,,0.01,0.000000,,2013-01-25 10:21:00,
2013-01-25 03:32:00,61.0,58.0,-100.00,South,186,6.0,10.0,90,0.00,,,0.01,0.000000,,2013-01-25 10:32:00,
2013-01-25 03:42:00,61.0,58.0,-100.00,South,186,6.0,10.0,90,0.00,,,0.01,0.000000,,2013-01-25 10:42:00,
2013-01-25 03:51:00,61.0,58.0,-100.00,South,186,6.0,10.0,90,0.00,,,0.01,0.000000,,2013-01-25 10:51:00,
2013-01-25 04:22:00,61.0,59.0,-100.00,South,182,6.0,9.0,92,0.00,,,0.01,0.000000,,2013-01-25 11:22:00,
2013-01-25 04:32:00,61.0,59.0,-100.00,South,182,6.0,9.0,92,0.00,,,0.01,0.000000,,2013-01-25 11:32:00,
2013-01-25 04:42:00,61.0,59.0,-100.00,South,182,6.0,9.0,92,0.00,,,0.01,0.000000,,2013-01-25 11:42:00,
2013-01-25 04:52:00,61.0,59.0,-100.00,South,182,6.0,9.0,92,0.00,,,0.01,0.000000,,2013-01-25 11:52:00,
2013-01-25 05:12:00,61.0,58.0,-100.00,South,179,7.0,11.0,91,0.00,,,0.01,0.000000,,2013-01-25 12:12:00,
2013-01-25 05:22:00,61.0,58.0,-100.00,South,179,7.0,11.0,91,0.00,,,0.01,0.000000,,2013-01-25 12:22:00,
2013-01-25 05:32:00,61.0,58.0,-100.00,South,179,7.0,11.0,91,0.00,,,0.01,0.000000,,2013-01-25 12:32:00,
2013-01-25 05:42:00,61.0,58.0,-100.00,South,179,7.0,11.0,91,0.00,,,0.01,0.000000,,2013-01-25 12:42:00,
2013-01-25 05:52:00,61.0,58.0,-100.00,South,179,7.0,11.0,91,0.00,,,0.01,0.000000,,2013-01-25 12:52:00,
2013-01-25 06:22:00,60.0,58.0,-100.00,South,184,6.0,9.0,92,0.00,,,0.00,0.000000,,2013-01-25 13:22:00,
2013-01-25 06:32:00,60.0,58.0,-100.00,South,184,6.0,9.0,92,0.00,,,0.00,0.000000,,2013-01-25 13:32:00,
2013-01-25 06:42:00,60.0,58.0,-100.00,South,184,6.0,9.0,92,0.00,,,0.00,0.000000,,2013-01-25 13:42:00,
2013-01-25 06:52:00,60.0,58.0,-100.00,South,184,6.0,9.0,92,0.00,,,0.00,0.000000,,2013-01-25 13:52:00,
2013-01-25 07:12:00,61.0,59.0,-100.00,South,176,6.0,7.0,94,0.00,,,0.00,44.000000,,2013-01-25 14:12:00,
2013-01-25 07:23:00,61.0,59.0,-100.00,South,176,6.0,7.0,94,0.00,,,0.00,44.000000,,2013-01-25 14:23:00,
2013-01-25 07:33:00,61.0,59.0,-100.00,South,176,6.0,7.0,94,0.00,,,0.00,44.000000,,2013-01-25 14:33:00,
2013-01-25 07:42:00,61.0,59.0,-100.00,South,176,6.0,7.0,94,0.00,,,0.00,44.000000,,2013-01-25 14:42:00,
2013-01-25 07:52:00,61.0,59.0,-100.00,South,176,6.0,7.0,94,0.00,,,0.00,44.000000,,2013-01-25 14:52:00,
2013-01-25 08:12:00,66.0,62.0,-100.00,South,188,8.0,11.0,87,0.00,,,0.00,246.000000,,2013-01-25 15:12:00,
2013-01-25 08:22:00,66.0,62.0,-100.00,South,188,8.0,11.0,87,0.00,,,0.00,246.000000,,2013-01-25 15:22:00,
2013-01-25 08:32:00,66.0,62.0,-100.00,South,188,8.0,11.0,87,0.00,,,0.00,246.000000,,2013-01-25 15:32:00,
2013-01-25 08:42:00,66.0,62.0,-100.00,South,188,8.0,11.0,87,0.00,,,0.00,246.000000,,2013-01-25 15:42:00,
2013-01-25 08:52:00,66.0,62.0,-100.00,South,188,8.0,11.0,87,0.00,,,0.00,246.000000,,2013-01-25 15:52:00,
2013-01-25 09:12:00,71.0,63.0,-100.00,SSW,206,10.0,14.0,76,0.00,,,0.00,463.000000,,2013-01-25 16:12:00,
2013-01-25 09:23:00,71.0,63.0,-100.00,SSW,206,10.0,14.0,76,0.00,,,0.00,463.000000,,2013-01-25 16:23:00,
2013-01-25 09:32:00,71.0,63.0,-100.00,SSW,206,10.0,14.0,76,0.00,,,0.00,463.000000,,2013-01-25 16:32:00,
2013-01-25 09:42:00,71.0,63.0,-100.00,SSW,206,10.0,14.0,76,0.00,,,0.00,463.000000,,2013-01-25 16:42:00,
2013-01-25 09:52:00,71.0,63.0,-100.00,SSW,206,10.0,14.0,76,0.00,,,0.00,463.000000,,2013-01-25 16:52:00,
2013-01-25 10:12:00,72.0,60.0,-100.00,SW,218,12.0,19.0,67,0.00,,,0.00,581.000000,,2013-01-25 17:12:00,
2013-01-25 10:22:00,72.0,60.0,-100.00,SW,218,12.0,19.0,67,0.00,,,0.00,581.000000,,2013-01-25 17:22:00,
2013-01-25 10:32:00,72.0,60.0,-100.00,SW,218,12.0,19.0,67,0.00,,,0.00,581.000000,,2013-01-25 17:32:00,
2013-01-25 10:43:00,72.0,60.0,-100.00,SW,218,12.0,19.0,67,0.00,,,0.00,581.000000,,2013-01-25 17:43:00,
2013-01-25 10:52:00,72.0,60.0,-100.00,SW,218,12.0,19.0,67,0.00,,,0.00,581.000000,,2013-01-25 17:52:00,
2013-01-25 11:23:00,74.0,61.0,-100.00,SW,215,12.0,20.0,65,0.00,,,0.00,621.000000,,2013-01-25 18:23:00,
2013-01-25 11:33:00,74.0,61.0,-100.00,SW,215,12.0,20.0,65,0.00,,,0.00,621.000000,,2013-01-25 18:33:00,
2013-01-25 11:42:00,74.0,61.0,-100.00,SW,215,12.0,20.0,65,0.00,,,0.00,621.000000,,2013-01-25 18:42:00,
2013-01-25 11:52:00,74.0,61.0,-100.00,SW,215,12.0,20.0,65,0.00,,,0.00,621.000000,,2013-01-25 18:52:00,
2013-01-25 12:12:00,74.0,61.0,-100.00,SSW,213,13.0,19.0,65,0.00,,,0.00,734.000000,,2013-01-25 19:12:00,
2013-01-25 12:22:00,74.0,61.0,-100.00,SSW,213,13.0,19.0,65,0.00,,,0.00,734.000000,,2013-01-25 19:22:00,
2013-01-25 12:32:00,74.0,61.0,-100.00,SSW,213,13.0,19.0,65,0.00,,,0.00,734.000000,,2013-01-25 19:32:00,
2013-01-25 12:42:00,74.0,61.0,-100.00,SSW,213,13.0,19.0,65,0.00,,,0.00,734.000000,,2013-01-25 19:42:00,
2013-01-25 12:52:00,74.0,61.0,-100.00,SSW,213,13.0,19.0,65,0.00,,,0.00,734.000000,,2013-01-25 19:52:00,
2013-01-25 13:12:00,73.0,61.0,-100.00,SW,233,10.0,20.0,65,0.00,,,0.00,526.000000,,2013-01-25 20:12:00,
2013-01-25 13:22:00,73.0,61.0,-100.00,SW,233,10.0,20.0,65,0.00,,,0.00,526.000000,,2013-01-25 20:22:00,
2013-01-25 13:32:00,73.0,61.0,-100.00,SW,233,10.0,20.0,65,0.00,,,0.00,526.000000,,2013-01-25 20:32:00,
2013-01-25 13:42:00,73.0,61.0,-100.00,SW,233,10.0,20.0,65,0.00,,,0.00,526.000000,,2013-01-25 20:42:00,
2013-01-25 13:52:00,73.0,61.0,-100.00,SW,233,10.0,20.0,65,0.00,,,0.00,526.000000,,2013-01-25 20:52:00,
2013-01-25 14:12:00,72.0,60.0,-100.00,WSW,241,9.0,18.0,67,0.00,,,0.00,414.000000,,2013-01-25 21:12:00,
2013-01-25 14:23:00,72.0,60.0,-100.00,WSW,241,9.0,18.0,67,0.00,,,0.00,414.000000,,2013-01-25 21:23:00,
2013-01-25 14:33:00,72.0,60.0,-100.00,WSW,241,9.0,18.0,67,0.00,,,0.00,414.000000,,2013-01-25 21:33:00,
2013-01-25 14:42:00,72.0,60.0,-100.00,WSW,241,9.0,18.0,67,0.00,,,0.00,414.000000,,2013-01-25 21:42:00,
2013-01-25 14:52:00,72.0,60.0,-100.00,WSW,241,9.0,18.0,67,0.00,,,0.00,414.000000,,2013-01-25 21:52:00,
2013-01-25 15:12:00,73.0,62.0,-100.00,SW,219,9.0,14.0,69,0.00,,,0.00,357.000000,,2013-01-25 22:12:00,
2013-01-25 15:22:00,73.0,62.0,-100.00,SW,219,9.0,14.0,69,0.00,,,0.00,357.000000,,2013-01-25 22:22:00,
2013-01-25 15:33:00,73.0,62.0,-100.00,SW,219,9.0,14.0,69,0.00,,,0.00,357.000000,,2013-01-25 22:33:00,
2013-01-25 15:42:00,73.0,62.0,-100.00,SW,219,9.0,14.0,69,0.00,,,0.00,357.000000,,2013-01-25 22:42:00,
2013-01-25 15:51:00,73.0,62.0,-100.00,SW,219,9.0,14.0,69,0.00,,,0.00,357.000000,,2013-01-25 22:51:00,
2013-01-25 16:22:00,70.0,61.0,-100.00,SSW,212,9.0,14.0,73,0.00,,,0.00,246.000000,,2013-01-25 23:22:00,
2013-01-25 16:32:00,70.0,61.0,-100.00,SSW,212,9.0,14.0,73,0.00,,,0.00,246.000000,,2013-01-25 23:32:00,
2013-01-25 16:42:00,70.0,61.0,-100.00,SSW,212,9.0,14.0,73,0.00,,,0.00,246.000000,,2013-01-25 23:42:00,
2013-01-25 16:52:00,70.0,61.0,-100.00,SSW,212,9.0,14.0,73,0.00,,,0.00,246.000000,,2013-01-25 23:52:00,
2013-01-25 17:22:00,66.0,60.0,-100.00,South,189,6.0,15.0,82,0.00,,,0.00,64.000000,,2013-01-26 00:22:00,
2013-01-25 17:32:00,66.0,60.0,-100.00,South,189,6.0,15.0,82,0.00,,,0.00,64.000000,,2013-01-26 00:32:00,
2013-01-25 17:42:00,66.0,60.0,-100.00,South,189,6.0,15.0,82,0.00,,,0.00,64.000000,,2013-01-26 00:42:00,
2013-01-25 17:52:00,66.0,60.0,-100.00,South,189,6.0,15.0,82,0.00,,,0.00,64.000000,,2013-01-26 00:52:00,
2013-01-25 18:22:00,63.0,61.0,-100.00,South,184,5.0,9.0,92,0.00,,,0.00,0.000000,,2013-01-26 01:22:00,
2013-01-25 18:32:00,63.0,61.0,-100.00,South,184,5.0,9.0,92,0.00,,,0.00,0.000000,,2013-01-26 01:32:00,
2013-01-25 18:42:00,63.0,61.0,-100.00,South,184,5.0,9.0,92,0.00,,,0.00,0.000000,,2013-01-26 01:42:00,
2013-01-25 18:52:00,63.0,61.0,-100.00,South,184,5.0,9.0,92,0.00,,,0.00,0.000000,,2013-01-26 01:52:00,
2013-01-25 19:11:00,62.0,60.0,-100.00,South,185,4.0,7.0,94,0.00,,,0.00,0.000000,,2013-01-26 02:11:00,
2013-01-25 19:22:00,62.0,60.0,-100.00,South,185,4.0,7.0,94,0.00,,,0.00,0.000000,,2013-01-26 02:22:00,
2013-01-25 19:32:00,62.0,60.0,-100.00,South,185,4.0,7.0,94,0.00,,,0.00,0.000000,,2013-01-26 02:32:00,
2013-01-25 19:42:00,62.0,60.0,-100.00,South,185,4.0,7.0,94,0.00,,,0.00,0.000000,,2013-01-26 02:42:00,
2013-01-25 19:52:00,62.0,60.0,-100.00,South,185,4.0,7.0,94,0.00,,,0.00,0.000000,,2013-01-26 02:52:00,
2013-01-25 20:11:00,63.0,61.0,-100.00,South,183,5.0,8.0,94,0.00,,,0.00,0.000000,,2013-01-26 03:11:00,
2013-01-25 20:22:00,63.0,61.0,-100.00,South,183,5.0,8.0,94,0.00,,,0.00,0.000000,,2013-01-26 03:22:00,
2013-01-25 20:31:00,63.0,61.0,-100.00,South,183,5.0,8.0,94,0.00,,,0.00,0.000000,,2013-01-26 03:31:00,
2013-01-25 20:42:00,63.0,61.0,-100.00,South,183,5.0,8.0,94,0.00,,,0.00,0.000000,,2013-01-26 03:42:00,
2013-01-25 20:51:00,63.0,61.0,-100.00,South,183,5.0,8.0,94,0.00,,,0.00,0.000000,,2013-01-26 03:51:00,
2013-01-25 21:12:00,62.0,61.0,-100.00,South,172,2.0,6.0,95,0.00,,,0.00,0.000000,,2013-01-26 04:12:00,
2013-01-25 21:21:00,62.0,61.0,-100.00,South,172,2.0,6.0,95,0.00,,,0.00,0.000000,,2013-01-26 04:21:00,
2013-01-25 21:32:00,62.0,61.0,-100.00,South,172,2.0,6.0,95,0.00,,,0.00,0.000000,,2013-01-26 04:32:00,
2013-01-25 21:42:00,62.0,61.0,-100.00,South,172,2.0,6.0,95,0.00,,,0.00,0.000000,,2013-01-26 04:42:00,
2013-01-25 21:52:00,62.0,61.0,-100.00,South,172,2.0,6.0,95,0.00,,,0.00,0.000000,,2013-01-26 04:52:00,
2013-01-25 22:23:00,62.0,61.0,-100.00,East,99,0.0,0.0,96,0.00,,,0.00,0.000000,,2013-01-26 05:23:00,
2013-01-25 22:33:00,62.0,61.0,-100.00,East,99,0.0,0.0,96,0.00,,,0.00,0.000000,,2013-01-26 05:33:00,
2013-01-25 22:41:00,62.0,61.0,-100.00,East,99,0.0,0.0,96,0.00,,,0.00,0.000000,,2013-01-26 05:41:00,
2013-01-25 22:52:00,62.0,61.0,-100.00,East,99,0.0,0.0,96,0.00,,,0.00,0.000000,,2013-01-26 05:52:00,
2013-01-25 23:12:00,61.0,60.0,-100.00,ESE,106,3.0,4.0,96,0.00,,,0.00,0.000000,,2013-01-26 06:12:00,
2013-01-25 23:21:00,61.0,60.0,-100.00,ESE,106,3.0,4.0,96,0.00,,,0.00,0.000000,,2013-01-26 06:21:00,
2013-01-25 23:32:00,61.0,60.0,-100.00,ESE,106,3.0,4.0,96,0.00,,,0.00,0.000000,,2013-01-26 06:32:00,
2013-01-25 23:41:00,61.0,60.0,-100.00,ESE,106,3.0,4.0,96,0.00,,,0.00,0.000000,,2013-01-26 06:41:00,
2013-01-25 23:51:00,61.0,60.0,-100.00,ESE,106,3.0,4.0,96,0.00,,,0.00,0.000000,,2013-01-26 06:51:00,